FW0372 Weather Reports


Display with metric or nautical units.
time (UTC)temp
F
wind
direction
speed
MPH
gust
MPH
rain 1hr
in
rain 24hr
in
rain mn
in
humidity
%
barometer
mb
20210117081417 36 152 0.0 1.0 0.00 0.00 0.00 51 1015.7
20210117080851 36 150 0.0 1.0 0.00 0.00 0.00 51 1015.9
20210117075900 36 215 0.0 0.0 0.00 0.00 0.00 52 1016.1
20210117074913 36 215 0.0 1.0 0.00 0.00 0.00 52 1016.4
20210117074348 36 215 0.0 1.0 0.00 0.00 0.00 52 1016.4
20210117073357 36 184 0.0 0.0 0.00 0.00 0.00 54 1016.1
20210117072356 36 184 0.0 1.0 0.00 0.00 0.00 52 1015.9
20210117071415 37 184 0.0 1.0 0.00 0.00 0.00 51 1015.8
20210117070347 37 184 0.0 1.0 0.00 0.00 0.00 51 1015.9
20210117065400 37 205 0.0 0.0 0.00 0.00 0.00 52 1016.0
20210117064404 37 205 0.0 0.0 0.00 0.00 0.00 51 1016.0
20210117063352 37 206 0.0 0.0 0.00 0.00 0.00 51 1016.2
20210117062902 37 206 0.0 0.0 0.00 0.00 0.00 52 1016.3
20210117061856 37 206 0.0 0.0 0.00 0.00 0.00 52 1016.2
20210117060902 38 206 0.0 0.0 0.00 0.00 0.00 50 1016.3
20210117055929 38 206 0.0 0.0 0.00 0.00 0.00 50 1016.3
20210117055355 38 206 0.0 0.0 0.00 0.00 0.00 49 1016.3
20210117054359 38 206 0.0 0.0 0.00 0.00 0.00 49 1016.3
20210117053406 39 206 0.0 0.0 0.00 0.00 0.00 48 1016.5
20210117052410 39 206 0.0 0.0 0.00 0.00 0.00 49 1016.5
20210117051849 39 206 0.0 0.0 0.00 0.00 0.00 48 1016.7
20210117050852 40 206 0.0 0.0 0.00 0.00 0.00 47 1016.7
20210117045858 40 206 0.0 0.0 0.00 0.00 0.00 47 1016.7
20210117044908 41 206 0.0 0.0 0.00 0.00 0.00 46 1016.6
20210117044358 41 206 0.0 0.0 0.00 0.00 0.00 45 1016.6
20210117043405 41 206 0.0 0.0 0.00 0.00 0.00 46 1016.5
20210117042413 41 206 0.0 0.0 0.00 0.00 0.00 45 1016.4
20210117041850 41 206 0.0 1.0 0.00 0.00 0.00 44 1016.3
20210117040900 41 351 0.0 0.0 0.00 0.00 0.00 45 1016.2
20210117035906 41 351 0.0 0.0 0.00 0.00 0.00 47 1016.1
20210117034909 40 351 0.0 0.0 0.00 0.00 0.00 46 1016.1
20210117033851 40 351 0.0 0.0 0.00 0.00 0.00 48 1016.3
20210117032859 41 351 0.0 0.0 0.00 0.00 0.00 47 1016.3
20210117031907 41 351 0.0 0.0 0.00 0.00 0.00 47 1016.1
20210117031350 41 351 0.0 0.0 0.00 0.00 0.00 48 1016.0
20210117030359 41 351 0.0 0.0 0.00 0.00 0.00 45 1016.0
20210117025400 41 351 0.0 0.0 0.00 0.00 0.00 46 1015.8
20210117024408 41 351 0.0 0.0 0.00 0.00 0.00 47 1015.7
20210117023401 40 351 0.0 0.0 0.00 0.00 0.00 46 1015.8
20210117022852 40 351 0.0 0.0 0.00 0.00 0.00 48 1016.0
20210117021857 40 351 0.0 0.0 0.00 0.00 0.00 48 1016.0
20210117020907 40 351 0.0 0.0 0.00 0.00 0.00 49 1016.1
20210117015910 40 351 0.0 0.0 0.00 0.00 0.00 48 1016.2
20210117014903 40 355 0.0 0.0 0.00 0.00 0.00 46 1016.1
20210117013859 40 355 0.0 0.0 0.00 0.00 0.00 45 1016.0
20210117012905 40 355 0.0 0.0 0.00 0.00 0.00 45 1015.9
20210117011914 40 355 0.0 0.0 0.00 0.00 0.00 45 1015.9
20210117011431 40 355 0.0 0.0 0.00 0.00 0.00 45 1016.0
20210117010857 40 355 0.0 0.0 0.00 0.00 0.00 45 1015.9
20210117005902 40 355 0.0 0.0 0.00 0.00 0.00 45 1016.2
20210117004908 40 355 0.0 0.0 0.00 0.00 0.00 46 1016.4
20210117003354 41 355 0.0 0.0 0.00 0.00 0.00 44 1016.3
20210117002850 41 355 0.0 0.0 0.00 0.00 0.00 44 1016.5
20210117001854 42 355 0.0 0.0 0.00 0.00 0.00 45 1016.4
20210117000901 43 355 0.0 0.0 0.00 0.00 0.00 43 1016.3
20210116235859 44 355 0.0 0.0 0.00 0.00 0.00 42 1016.4
20210116234913 45 355 0.0 0.0 0.00 0.00 0.00 40 1016.5
20210116234354 46 355 0.0 1.0 0.00 0.00 0.00 40 1016.5
20210116233405 47 355 0.0 0.0 0.00 0.00 0.00 37 1016.6
20210116232410 48 355 0.0 2.0 0.00 0.00 0.00 35 1016.3
20210116231351 49 232 0.0 2.0 0.00 0.00 0.00 30 1016.3
20210116230408 50 228 2.0 4.0 0.00 0.00 0.00 27 1016.4
20210116225407 51 231 1.0 6.0 0.00 0.00 0.00 27 1016.4
20210116224357 51 246 1.0 6.0 0.00 0.00 0.00 28 1016.2
20210116223358 52 282 2.0 6.0 0.00 0.00 0.00 28 1016.2
20210116222400 52 316 3.0 9.0 0.00 0.00 0.00 27 1016.3
20210116221422 52 285 3.0 8.0 0.00 0.00 0.00 27 1016.2
20210116220402 51 266 1.0 4.0 0.00 0.00 0.00 28 1016.3
20210116215402 52 177 3.0 8.0 0.00 0.00 0.00 28 1016.4
20210116214408 52 287 3.0 12.0 0.00 0.00 0.00 28 1016.5
20210116213357 51 244 3.0 9.0 0.00 0.00 0.00 29 1016.6
20210116212415 51 231 3.0 7.0 0.00 0.00 0.00 30 1016.2
20210116211853 51 229 0.0 9.0 0.00 0.00 0.00 32 1016.3
20210116210857 51 257 2.0 9.0 0.00 0.00 0.00 29 1016.3
20210116205910 51 296 3.0 11.0 0.00 0.00 0.00 29 1016.5
20210116204856 51 218 2.0 11.0 0.00 0.00 0.00 33 1016.4
20210116203908 50 132 2.0 12.0 0.00 0.00 0.00 34 1016.6
20210116202913 50 300 5.0 10.0 0.00 0.00 0.00 32 1016.4
20210116201859 50 248 3.0 8.0 0.00 0.00 0.00 32 1016.4
20210116200913 50 209 2.0 9.0 0.00 0.00 0.00 34 1016.5
20210116195910 50 319 3.0 11.0 0.00 0.00 0.00 33 1016.7
20210116195352 50 332 3.0 9.0 0.00 0.00 0.00 32 1016.8
20210116194414 49 207 3.0 8.0 0.00 0.00 0.00 33 1016.9
20210116193403 48 255 3.0 12.0 0.00 0.00 0.00 35 1017.0
20210116192915 49 223 2.0 11.0 0.00 0.00 0.00 34 1017.1
20210116191906 48 238 4.0 12.0 0.00 0.00 0.00 33 1017.2
20210116190902 48 231 3.0 8.0 0.00 0.00 0.00 34 1017.2
20210116185414 48 223 4.0 7.0 0.00 0.00 0.00 34 1017.6
20210116184400 47 207 4.0 10.0 0.00 0.00 0.00 34 1017.8
20210116183407 47 209 2.0 8.0 0.00 0.00 0.00 34 1017.7
20210116182753 47 239 2.0 11.0 0.00 0.00 0.00 34 1017.9
20210116182204 47 141 3.0 9.0 0.00 0.00 0.00 34 1018.1
20210116180415 46 170 2.0 8.0 0.00 0.00 0.00 34 1018.2
20210116175848 46 186 2.0 8.0 0.00 0.00 0.00 35 1018.2
20210116174904 46 244 3.0 11.0 0.00 0.00 0.00 36 1018.6
20210116173907 45 196 3.0 12.0 0.00 0.00 0.00 36 1018.8
20210116172914 45 256 3.0 11.0 0.00 0.00 0.00 36 1019.2
20210116172349 45 211 3.0 11.0 0.00 0.00 0.00 37 1019.4
20210116171359 44 185 3.0 9.0 0.00 0.00 0.00 36 1019.6
20210116170413 44 328 2.0 12.0 0.00 0.00 0.00 39 1020.0
20210116165852 43 221 3.0 12.0 0.00 0.00 0.00 37 1020.1
20210116164913 43 259 2.0 10.0 0.00 0.00 0.00 41 1020.2
20210116163908 42 319 1.0 8.0 0.00 0.00 0.00 40 1020.6
20210116163355 42 259 3.0 9.0 0.00 0.00 0.00 40 1020.5
20210116162400 42 309 4.0 9.0 0.00 0.00 0.00 42 1020.4
20210116161353 41 329 4.0 9.0 0.00 0.00 0.00 43 1020.5
20210116160356 40 223 3.0 7.0 0.00 0.00 0.00 45 1020.3
20210116155411 39 250 2.0 7.0 0.00 0.00 0.00 45 1020.4
20210116154411 38 196 0.0 6.0 0.00 0.00 0.00 48 1020.3
20210116153849 38 228 1.0 6.0 0.00 0.00 0.00 49 1020.4
20210116152852 37 232 2.0 8.0 0.00 0.00 0.00 48 1020.5
20210116151905 36 259 1.0 8.0 0.00 0.00 0.00 50 1020.2
20210116150357 34 268 1.0 7.0 0.00 0.00 0.00 53 1020.0
20210116145401 33 240 1.0 4.0 0.00 0.00 0.00 54 1019.7
20210116144408 32 259 0.0 6.0 0.00 0.00 0.00 57 1019.6
20210116143411 31 217 0.0 3.0 0.00 0.00 0.00 58 1019.4
20210116142410 30 259 1.0 4.0 0.00 0.00 0.00 58 1019.4
20210116141523 30 240 0.0 3.0 0.00 0.00 0.00 59 1019.4
20210116140908 30 240 0.0 3.0 0.00 0.00 0.00 59 1019.5
20210116135946 30 271 0.0 3.0 0.00 0.00 0.00 60 1019.2
20210116134918 30 287 0.0 2.0 0.00 0.00 0.00 60 1019.3
20210116133908 30 248 0.0 4.0 0.00 0.00 0.00 60 1019.6
20210116132859 30 246 1.0 4.0 0.00 0.00 0.00 60 1019.5
20210116131859 29 244 0.0 4.0 0.00 0.00 0.00 60 1019.2
20210116130902 30 252 0.0 2.0 0.00 0.00 0.00 60 1019.2
20210116125852 30 252 0.0 2.0 0.00 0.00 0.00 60 1018.8
20210116124901 29 194 0.0 3.0 0.00 0.00 0.00 61 1018.6
20210116123900 29 236 0.0 0.0 0.00 0.00 0.00 59 1018.5
20210116122902 30 236 0.0 0.0 0.00 0.00 0.00 59 1018.4
20210116121911 30 257 0.0 0.0 0.00 0.00 0.00 59 1018.1
20210116120859 30 257 0.0 2.0 0.00 0.00 0.00 60 1017.9
20210116115902 30 257 0.0 1.0 0.00 0.00 0.00 59 1017.9
20210116114918 29 257 0.0 6.0 0.00 0.00 0.00 60 1017.8
20210116114352 29 236 0.0 5.0 0.00 0.00 0.00 61 1017.7
20210116113353 29 278 0.0 0.0 0.00 0.00 0.00 59 1017.5
20210116112421 29 278 0.0 0.0 0.00 0.00 0.00 59 1017.1
20210116110859 29 278 0.0 0.0 0.00 0.00 0.00 59 1017.3
20210116105915 29 278 0.0 0.0 0.00 0.00 0.00 59 1017.3
20210116104952 29 278 0.0 0.0 0.00 0.00 0.00 57 1017.3
20210116104400 30 278 0.0 0.0 0.00 0.00 0.00 58 1017.5
20210116102848 30 292 0.0 0.0 0.00 0.00 0.00 57 1017.5
20210116101854 30 292 0.0 0.0 0.00 0.00 0.00 57 1017.2
20210116100902 30 292 0.0 0.0 0.00 0.00 0.00 58 1017.0
20210116100347 30 292 0.0 0.0 0.00 0.00 0.00 57 1017.1
20210116095402 30 292 0.0 2.0 0.00 0.00 0.00 56 1017.0
20210116094351 30 210 0.0 0.0 0.00 0.00 0.00 56 1017.0
20210116093406 31 184 0.0 0.0 0.00 0.00 0.00 56 1017.2
20210116092404 31 184 0.0 0.0 0.00 0.00 0.00 55 1017.3
20210116091847 31 215 0.0 0.0 0.00 0.00 0.00 56 1017.5
20210116090900 31 215 0.0 2.0 0.00 0.00 0.00 55 1017.3
20210116085858 31 233 0.0 0.0 0.00 0.00 0.00 56 1017.3
20210116084915 31 233 0.0 0.0 0.00 0.00 0.00 54 1017.4
20210116084349 31 233 0.0 0.0 0.00 0.00 0.00 55 1017.4
20210116083401 32 233 0.0 0.0 0.00 0.00 0.00 53 1017.3
20210116082359 32 233 0.0 3.0 0.00 0.00 0.00 53 1017.2